| time (UTC) | temp C | wind direction | speed KPH | gust KPH | rain 1hr cm | rain 24hr cm | rain mn cm | humidity % | barometer mb |
| 20260504160325 | 30 | 80 | 20.9 | 0.0 | 0.00 | 0.00 | 0.00 | 55 | 1012.0 |
| 20260504150321 | 28 | 10 | 6.4 | 0.0 | 0.00 | 0.00 | 0.00 | 70 | 1012.0 |
| 20260504141318 | 26 | 90 | 6.4 | 0.0 | 0.00 | 0.00 | 0.00 | 69 | 1012.0 |
| 20260504140318 | 26 | 90 | 6.4 | 0.0 | 0.00 | 0.00 | 0.00 | 69 | 1012.0 |
| 20260504130314 | 23 | 110 | 8.0 | 0.0 | 0.00 | 0.00 | 0.00 | 77 | 1012.0 |
| 20260504120310 | 24 | 110 | 8.0 | 0.0 | 0.00 | 0.00 | 0.00 | 73 | 1011.0 |
| 20260504110307 | 23 | 95 | 16.1 | 33.8 | 0.00 | 0.00 | 0.00 | 73 | 1011.0 |
| 20260504100304 | 23 | 98 | 17.7 | 33.8 | 0.00 | 0.00 | 0.00 | 73 | 1011.0 |
| 20260504081258 | 23 | 96 | 20.9 | 37.0 | 0.00 | 0.00 | 0.00 | 71 | 1011.0 |
| 20260504080258 | 24 | 96 | 20.9 | 37.0 | 0.00 | 0.00 | 0.00 | 71 | 1011.0 |
| 20260504070254 | 24 | 104 | 16.1 | 33.8 | 0.00 | 0.00 | 0.00 | 69 | 1012.0 |
| 20260504050248 | 27 | 110 | 17.7 | 0.0 | 0.00 | 0.00 | 0.00 | 64 | 1013.0 |
| 20260504045247 | 27 | 110 | 17.7 | 0.0 | 0.00 | 0.00 | 0.00 | 62 | 1013.0 |
| 20260504044247 | 27 | 110 | 17.7 | 0.0 | 0.00 | 0.00 | 0.00 | 58 | 1013.0 |
| 20260504043246 | 27 | 110 | 17.7 | 0.0 | 0.00 | 0.00 | 0.00 | 58 | 1013.0 |
| 20260504042246 | 27 | 110 | 17.7 | 0.0 | 0.00 | 0.00 | 0.00 | 57 | 1013.0 |
| 20260504041245 | 28 | 110 | 17.7 | 0.0 | 0.00 | 0.00 | 0.00 | 55 | 1013.0 |
| 20260504040245 | 28 | 110 | 17.7 | 0.0 | 0.00 | 0.00 | 0.00 | 55 | 1013.0 |
| 20260504035244 | 28 | 110 | 17.7 | 0.0 | 0.00 | 0.00 | 0.00 | 54 | 1013.0 |
| 20260504034244 | 28 | 110 | 17.7 | 0.0 | 0.00 | 0.00 | 0.00 | 52 | 1013.0 |
| 20260504033243 | 28 | 110 | 17.7 | 0.0 | 0.00 | 0.00 | 0.00 | 52 | 1013.0 |
| 20260504032243 | 28 | 140 | 6.4 | 0.0 | 0.00 | 0.00 | 0.00 | 50 | 1012.0 |
| 20260504031242 | 28 | 140 | 6.4 | 0.0 | 0.00 | 0.00 | 0.00 | 50 | 1012.0 |
| 20260504030242 | 28 | 140 | 6.4 | 0.0 | 0.00 | 0.00 | 0.00 | 50 | 1012.0 |
| 20260504025241 | 28 | 140 | 6.4 | 0.0 | 0.00 | 0.00 | 0.00 | 50 | 1012.0 |
| 20260504024240 | 29 | 140 | 6.4 | 0.0 | 0.00 | 0.00 | 0.00 | 50 | 1012.0 |
| 20260504023240 | 29 | 140 | 6.4 | 0.0 | 0.00 | 0.00 | 0.00 | 50 | 1012.0 |
| 20260504022239 | 30 | 140 | 6.4 | 0.0 | 0.00 | 0.00 | 0.00 | 50 | 1011.0 |
| 20260504021239 | 30 | 140 | 6.4 | 0.0 | 0.00 | 0.00 | 0.00 | 50 | 1011.0 |
| 20260504020238 | 26 | 120 | 20.9 | 0.0 | 0.00 | 0.00 | 0.00 | 44 | 1011.0 |
| 20260504015238 | 26 | 120 | 20.9 | 0.0 | 0.00 | 0.00 | 0.00 | 44 | 1011.0 |
| 20260504014237 | 27 | 120 | 20.9 | 0.0 | 0.00 | 0.00 | 0.00 | 44 | 1010.0 |
| 20260504013236 | 27 | 120 | 20.9 | 0.0 | 0.00 | 0.00 | 0.00 | 44 | 1010.0 |
| 20260504012235 | 28 | 120 | 20.9 | 0.0 | 0.00 | 0.00 | 0.00 | 44 | 1009.0 |
| 20260504011235 | 28 | 120 | 20.9 | 0.0 | 0.00 | 0.00 | 0.00 | 44 | 1009.0 |
| 20260504010235 | 29 | 120 | 20.9 | 0.0 | 0.00 | 0.00 | 0.00 | 44 | 1009.0 |
| 20260504005234 | 30 | 120 | 20.9 | 0.0 | 0.00 | 0.00 | 0.00 | 43 | 1009.0 |
| 20260504004233 | 30 | 120 | 20.9 | 0.0 | 0.00 | 0.00 | 0.00 | 43 | 1009.0 |
| 20260504003233 | 30 | 120 | 20.9 | 0.0 | 0.00 | 0.00 | 0.00 | 43 | 1008.0 |
| 20260504002232 | 30 | 120 | 20.9 | 0.0 | 0.00 | 0.00 | 0.00 | 43 | 1008.0 |
| 20260504001232 | 30 | 120 | 20.9 | 0.0 | 0.00 | 0.00 | 0.00 | 42 | 1008.0 |
| 20260504000233 | 31 | 120 | 20.9 | 0.0 | 0.00 | 0.00 | 0.00 | 42 | 1008.0 |
| 20260503235231 | 31 | 120 | 20.9 | 0.0 | 0.00 | 0.00 | 0.00 | 41 | 1008.0 |
| 20260503234230 | 31 | 120 | 20.9 | 0.0 | 0.00 | 0.00 | 0.00 | 41 | 1008.0 |
| 20260503233229 | 32 | 120 | 20.9 | 0.0 | 0.00 | 0.00 | 0.00 | 41 | 1008.0 |
| 20260503232229 | 32 | 120 | 20.9 | 0.0 | 0.00 | 0.00 | 0.00 | 40 | 1007.0 |
| 20260503231228 | 32 | 120 | 20.9 | 0.0 | 0.00 | 0.00 | 0.00 | 40 | 1007.0 |
| 20260503230228 | 32 | 120 | 20.9 | 0.0 | 0.00 | 0.00 | 0.00 | 40 | 1007.0 |
| 20260503225227 | 32 | 120 | 20.9 | 0.0 | 0.00 | 0.00 | 0.00 | 40 | 1007.0 |
| 20260503224227 | 32 | 120 | 20.9 | 0.0 | 0.00 | 0.00 | 0.00 | 40 | 1007.0 |
| 20260503223226 | 32 | 120 | 20.9 | 0.0 | 0.00 | 0.00 | 0.00 | 40 | 1007.0 |
| 20260503222225 | 32 | 120 | 20.9 | 0.0 | 0.00 | 0.00 | 0.00 | 40 | 1007.0 |
| 20260503221225 | 33 | 100 | 20.9 | 0.0 | 0.00 | 0.00 | 0.00 | 39 | 1007.0 |
| 20260503220224 | 33 | 100 | 20.9 | 0.0 | 0.00 | 0.00 | 0.00 | 39 | 1007.0 |
| 20260503215224 | 33 | 100 | 20.9 | 0.0 | 0.00 | 0.00 | 0.00 | 39 | 1007.0 |
| 20260503214223 | 33 | 100 | 20.9 | 0.0 | 0.00 | 0.00 | 0.00 | 39 | 1007.0 |
| 20260503213222 | 33 | 100 | 20.9 | 0.0 | 0.00 | 0.00 | 0.00 | 39 | 1007.0 |
| 20260503212222 | 33 | 100 | 20.9 | 0.0 | 0.00 | 0.00 | 0.00 | 39 | 1008.0 |
| 20260503211221 | 33 | 100 | 20.9 | 0.0 | 0.00 | 0.00 | 0.00 | 40 | 1008.0 |
| 20260503210220 | 33 | 100 | 20.9 | 0.0 | 0.00 | 0.00 | 0.00 | 40 | 1008.0 |
| 20260503205220 | 33 | 100 | 20.9 | 0.0 | 0.00 | 0.00 | 0.00 | 40 | 1008.0 |
| 20260503204219 | 34 | 100 | 20.9 | 0.0 | 0.00 | 0.00 | 0.00 | 40 | 1008.0 |
| 20260503203219 | 35 | 100 | 20.9 | 0.0 | 0.00 | 0.00 | 0.00 | 40 | 1008.0 |
| 20260503202218 | 35 | 100 | 20.9 | 0.0 | 0.00 | 0.00 | 0.00 | 40 | 1008.0 |
| 20260503201217 | 32 | 124 | 11.3 | 12.9 | 0.00 | 0.00 | 0.00 | 41 | 1008.0 |
| 20260503200217 | 33 | 124 | 11.3 | 12.9 | 0.00 | 0.00 | 0.00 | 41 | 1008.0 |
| 20260503195217 | 33 | 124 | 11.3 | 12.9 | 0.00 | 0.00 | 0.00 | 41 | 1008.0 |
| 20260503194216 | 32 | 124 | 11.3 | 12.9 | 0.00 | 0.00 | 0.00 | 48 | 1009.0 |
| 20260503193216 | 33 | 124 | 11.3 | 12.9 | 0.00 | 0.00 | 0.00 | 48 | 1009.0 |
| 20260503192215 | 33 | 130 | 4.8 | 12.9 | 0.00 | 0.00 | 0.00 | 47 | 1010.0 |
| 20260503191214 | 32 | 120 | 8.0 | 0.0 | 0.00 | 0.00 | 0.00 | 46 | 1010.0 |
| 20260503190214 | 33 | 120 | 9.7 | 0.0 | 0.00 | 0.00 | 0.00 | 46 | 1010.0 |
| 20260503185213 | 33 | 120 | 9.7 | 0.0 | 0.00 | 0.00 | 0.00 | 46 | 1010.0 |
| 20260503184213 | 32 | 120 | 9.7 | 0.0 | 0.00 | 0.00 | 0.00 | 46 | 1010.0 |
| 20260503183212 | 33 | 120 | 9.7 | 0.0 | 0.00 | 0.00 | 0.00 | 46 | 1010.0 |
| 20260503182212 | 31 | 100 | 6.4 | 0.0 | 0.00 | 0.00 | 0.00 | 52 | 1011.0 |
| 20260503181211 | 31 | 100 | 6.4 | 0.0 | 0.00 | 0.00 | 0.00 | 52 | 1011.0 |
| 20260503180211 | 31 | 100 | 6.4 | 0.0 | 0.00 | 0.00 | 0.00 | 52 | 1011.0 |
| 20260503175210 | 32 | 100 | 6.4 | 0.0 | 0.00 | 0.00 | 0.00 | 52 | 1011.0 |
| 20260503174210 | 31 | 100 | 6.4 | 0.0 | 0.00 | 0.00 | 0.00 | 52 | 1011.0 |
| 20260503173209 | 32 | 100 | 6.4 | 0.0 | 0.00 | 0.00 | 0.00 | 52 | 1011.0 |
| 20260503171207 | 30 | 110 | 14.5 | 0.0 | 0.00 | 0.00 | 0.00 | 55 | 1012.0 |
| 20260503170206 | 30 | 110 | 14.5 | 0.0 | 0.00 | 0.00 | 0.00 | 55 | 1012.0 |